Simultaneous Nadir Overpasses (SNOs) Predictions

Prediction of SNOs between METOP-A and TERRA Satellite Orbit:

Table of predicted SNOs for the next 14.0 days since TLE Epoch: 6/22/2014
Index Date (METOP-A) Time (METOP-A) Lat,Lon (METOP-A) SZA (METOP-A ) Date (TERRA) Time (TERRA) Lat,Lon (TERRA) SZA (TERRA ) Distance(km) Time Diff (sec)
1 06/24/2014 16:09:28 81.28, -15.60 60.70 06/24/2014 16:09:55 81.27, -15.67 60.70 1.22 27
2 06/24/2014 17:00:07 -81.29, 152.33 119.23 06/24/2014 16:59:21 -81.29, 152.31 119.25 0.82 46
3 06/27/2014 11:43:53 81.28, 50.75 60.76 06/27/2014 11:44:07 81.27, 50.78 60.77 0.57 14
4 06/27/2014 12:34:32 -81.29,-141.27 119.16 06/27/2014 12:33:33 -81.29,-141.22 119.18 1.20 59
5 06/30/2014 06:28:08 -80.93, -61.53 120.56 06/30/2014 06:29:18 -80.66, -58.96 120.48 54.75 70
6 06/30/2014 07:18:18 81.28, 117.46 60.93 06/30/2014 07:18:19 81.29, 117.50 60.94 0.97 1
7 06/30/2014 08:08:58 -81.29, -74.90 119.04 06/30/2014 08:07:46 -81.29, -74.84 119.06 1.10 72
8 07/03/2014 02:02:04 -81.28, 16.12 118.95 07/03/2014 02:03:06 -81.28, 16.15 118.91 0.66 62
9 07/03/2014 02:52:44 81.28,-176.26 61.10 07/03/2014 02:52:32 81.28,-176.26 61.09 0.33 12
10 07/05/2014 21:36:29 -81.28, 82.80 118.68 07/05/2014 21:37:18 -81.29, 82.69 118.67 1.96 49




NCC Satellite Simultaneous Nadir Overpasses (SNOs) Prediction Service
